Time,TemperatureF,DewpointF,PressureIn,WindDirection,WindDirectionDegrees,WindSpeedMPH,WindSpeedGustMPH,Humidity,HourlyPrecipIn,Conditions,Clouds,dailyrainin,SoftwareType,DateUTC
2018-05-26 00:03:00,53.6,48.6,30.02,ESE,113,0.0,0.0,83,0.00,,,0.00,meteobridge,2018-05-26 07:03:00,
2018-05-26 00:09:00,53.6,48.6,30.02,ESE,113,0.0,0.0,83,0.00,,,0.00,meteobridge,2018-05-26 07:09:00,
2018-05-26 00:14:00,53.4,48.4,30.02,ESE,113,0.0,0.0,83,0.00,,,0.00,meteobridge,2018-05-26 07:14:00,
2018-05-26 00:19:00,53.2,48.6,30.02,ESE,113,0.0,0.0,84,0.00,,,0.00,meteobridge,2018-05-26 07:19:00,
2018-05-26 00:24:00,53.1,48.7,30.02,ESE,113,0.0,0.0,85,0.00,,,0.00,meteobridge,2018-05-26 07:24:00,
2018-05-26 00:29:00,53.1,48.7,30.02,ESE,113,0.0,0.0,85,0.00,,,0.00,meteobridge,2018-05-26 07:29:00,
2018-05-26 00:34:00,52.9,48.7,30.02,ESE,113,0.0,0.0,86,0.00,,,0.00,meteobridge,2018-05-26 07:34:00,
2018-05-26 00:39:00,52.9,48.7,30.02,ESE,113,0.0,0.0,86,0.00,,,0.00,meteobridge,2018-05-26 07:39:00,
2018-05-26 00:45:00,52.9,49.1,30.02,ESE,113,0.0,0.0,87,0.00,,,0.00,meteobridge,2018-05-26 07:45:00,
2018-05-26 00:50:00,52.9,49.1,30.02,ESE,113,0.0,0.0,87,0.00,,,0.00,meteobridge,2018-05-26 07:50:00,
2018-05-26 00:55:00,52.9,49.5,30.02,ESE,113,0.0,0.0,88,0.00,,,0.00,meteobridge,2018-05-26 07:55:00,
2018-05-26 01:00:00,52.7,49.3,30.02,ESE,113,0.0,0.0,88,0.00,,,0.00,meteobridge,2018-05-26 08:00:00,
2018-05-26 01:06:00,52.5,49.1,30.02,ESE,113,0.0,0.0,88,0.00,,,0.00,meteobridge,2018-05-26 08:06:00,
2018-05-26 01:11:00,52.5,49.1,30.02,ESE,113,0.0,0.0,88,0.00,,,0.00,meteobridge,2018-05-26 08:11:00,
2018-05-26 01:16:00,52.5,49.5,30.02,ESE,113,0.0,0.0,89,0.00,,,0.00,meteobridge,2018-05-26 08:16:00,
2018-05-26 01:21:00,52.5,49.5,30.02,ESE,113,0.0,0.0,89,0.00,,,0.00,meteobridge,2018-05-26 08:21:00,
2018-05-26 01:26:00,52.5,49.1,30.02,ESE,113,0.0,0.0,88,0.00,,,0.00,meteobridge,2018-05-26 08:26:00,
2018-05-26 01:31:00,52.7,49.3,30.01,ESE,113,0.0,0.0,88,0.00,,,0.00,meteobridge,2018-05-26 08:31:00,
2018-05-26 01:36:00,52.7,49.3,30.01,ESE,113,0.0,0.0,88,0.00,,,0.00,meteobridge,2018-05-26 08:36:00,
2018-05-26 01:41:00,52.7,49.3,30.01,ESE,113,0.0,0.0,88,0.00,,,0.00,meteobridge,2018-05-26 08:41:00,
2018-05-26 01:46:00,52.7,49.3,30.01,ESE,113,0.0,0.0,88,0.00,,,0.00,meteobridge,2018-05-26 08:46:00,
2018-05-26 01:52:00,52.5,49.1,30.01,ESE,113,0.0,0.0,88,0.00,,,0.00,meteobridge,2018-05-26 08:52:00,
2018-05-26 01:55:00,52.5,49.1,30.01,SE,128,0.0,0.0,88,0.00,,,0.00,meteobridge,2018-05-26 08:55:00,
2018-05-26 02:00:00,52.7,49.3,30.01,SE,128,0.0,0.0,88,0.00,,,0.00,meteobridge,2018-05-26 09:00:00,
2018-05-26 02:05:00,52.7,49.3,30.01,SE,128,0.0,0.0,88,0.00,,,0.00,meteobridge,2018-05-26 09:05:00,
2018-05-26 02:10:00,52.5,49.1,30.01,SE,132,0.0,0.0,88,0.00,,,0.00,meteobridge,2018-05-26 09:10:00,
2018-05-26 02:16:00,52.5,49.1,30.01,SE,133,0.0,0.0,88,0.00,,,0.00,meteobridge,2018-05-26 09:16:00,
2018-05-26 02:21:00,52.5,49.5,30.01,SE,133,0.0,0.0,89,0.00,,,0.00,meteobridge,2018-05-26 09:21:00,
2018-05-26 02:26:00,52.5,49.5,30.01,SE,133,0.0,0.0,89,0.00,,,0.00,meteobridge,2018-05-26 09:26:00,
2018-05-26 02:31:00,52.5,49.5,30.00,SSE,151,0.0,0.0,89,0.00,,,0.00,meteobridge,2018-05-26 09:31:00,
2018-05-26 02:36:00,52.3,49.3,30.00,SSE,163,0.0,0.0,89,0.00,,,0.00,meteobridge,2018-05-26 09:36:00,
2018-05-26 02:41:00,52.3,48.9,30.00,SSE,164,0.0,0.0,88,0.00,,,0.00,meteobridge,2018-05-26 09:41:00,
2018-05-26 02:47:00,52.3,48.9,30.00,SSE,159,0.0,0.0,88,0.00,,,0.00,meteobridge,2018-05-26 09:47:00,
2018-05-26 02:52:00,52.2,49.1,30.00,SSE,158,0.0,0.0,89,0.00,,,0.00,meteobridge,2018-05-26 09:52:00,
2018-05-26 02:57:00,52.2,49.1,30.00,SSE,152,0.0,0.0,89,0.00,,,0.00,meteobridge,2018-05-26 09:57:00,
2018-05-26 03:02:00,52.2,49.1,30.00,SSE,158,0.0,0.0,89,0.00,,,0.00,meteobridge,2018-05-26 10:02:00,
2018-05-26 03:07:00,52.2,49.1,30.00,SE,141,0.0,0.0,89,0.00,,,0.00,meteobridge,2018-05-26 10:07:00,
2018-05-26 03:12:00,52.0,48.9,30.00,SE,131,0.0,0.0,89,0.00,,,0.00,meteobridge,2018-05-26 10:12:00,
2018-05-26 03:17:00,52.0,49.1,30.00,SSE,156,0.0,0.0,90,0.00,,,0.00,meteobridge,2018-05-26 10:17:00,
2018-05-26 03:23:00,52.0,49.1,30.00,SE,138,0.0,0.0,90,0.00,,,0.00,meteobridge,2018-05-26 10:23:00,
2018-05-26 03:28:00,52.0,49.1,30.00,SE,126,0.0,0.0,90,0.00,,,0.00,meteobridge,2018-05-26 10:28:00,
2018-05-26 03:33:00,52.0,49.1,30.00,SSE,162,0.0,0.0,90,0.00,,,0.00,meteobridge,2018-05-26 10:33:00,
2018-05-26 03:38:00,51.8,48.9,30.00,SE,133,0.0,0.0,90,0.00,,,0.00,meteobridge,2018-05-26 10:38:00,
2018-05-26 03:43:00,51.8,48.9,29.99,SE,141,0.0,0.0,90,0.00,,,0.00,meteobridge,2018-05-26 10:43:00,
2018-05-26 03:48:00,51.8,49.3,29.99,SSE,148,0.0,0.0,91,0.00,,,0.00,meteobridge,2018-05-26 10:48:00,
2018-05-26 03:53:00,51.8,49.3,29.99,SSE,163,0.0,0.0,91,0.00,,,0.00,meteobridge,2018-05-26 10:53:00,
2018-05-26 03:58:00,51.8,49.3,29.99,SSE,158,0.0,0.0,91,0.00,,,0.00,meteobridge,2018-05-26 10:58:00,
2018-05-26 04:03:00,51.8,49.3,29.99,SE,130,0.0,0.0,91,0.00,,,0.00,meteobridge,2018-05-26 11:03:00,
2018-05-26 04:09:00,51.8,49.3,30.00,SE,137,0.0,0.0,91,0.00,,,0.00,meteobridge,2018-05-26 11:09:00,
2018-05-26 04:14:00,51.6,49.1,30.00,SSE,151,0.0,0.0,91,0.00,,,0.00,meteobridge,2018-05-26 11:14:00,
2018-05-26 04:19:00,51.6,49.1,30.00,SSE,150,0.0,0.0,91,0.00,,,0.00,meteobridge,2018-05-26 11:19:00,
2018-05-26 04:24:00,51.6,49.1,30.00,SSE,150,0.0,0.0,91,0.00,,,0.00,meteobridge,2018-05-26 11:24:00,
2018-05-26 04:29:00,51.6,49.1,30.00,SSE,150,0.0,0.0,91,0.00,,,0.00,meteobridge,2018-05-26 11:29:00,
2018-05-26 04:34:00,51.8,49.3,30.00,SSE,153,0.0,0.0,91,0.00,,,0.00,meteobridge,2018-05-26 11:34:00,
2018-05-26 04:39:00,51.8,49.3,30.00,SSE,155,0.0,0.0,91,0.00,,,0.00,meteobridge,2018-05-26 11:39:00,
2018-05-26 04:44:00,51.8,49.3,30.00,SSE,156,0.0,0.0,91,0.00,,,0.00,meteobridge,2018-05-26 11:44:00,
2018-05-26 04:49:00,52.0,49.5,30.00,SSE,157,0.0,0.0,91,0.00,,,0.00,meteobridge,2018-05-26 11:49:00,
2018-05-26 04:55:00,51.8,49.3,30.00,SSE,157,0.0,0.0,91,0.00,,,0.00,meteobridge,2018-05-26 11:55:00,
2018-05-26 05:00:00,51.8,49.3,30.01,SSE,157,0.0,0.0,91,0.00,,,0.00,meteobridge,2018-05-26 12:00:00,
2018-05-26 05:05:00,51.8,49.3,30.00,SSE,157,0.0,0.0,91,0.00,,,0.00,meteobridge,2018-05-26 12:05:00,
2018-05-26 05:10:00,51.8,49.3,30.00,SSE,157,0.0,0.0,91,0.00,,,0.00,meteobridge,2018-05-26 12:10:00,
2018-05-26 05:15:00,51.8,49.3,30.00,SSE,166,0.0,0.0,91,0.00,,,0.00,meteobridge,2018-05-26 12:15:00,
2018-05-26 05:20:00,51.8,49.3,30.01,SSE,166,0.0,0.0,91,0.00,,,0.00,meteobridge,2018-05-26 12:20:00,
2018-05-26 05:25:00,51.8,49.3,30.01,SSE,167,0.0,0.0,91,0.00,,,0.00,meteobridge,2018-05-26 12:25:00,
2018-05-26 05:30:00,51.8,49.3,30.01,SSE,167,0.0,0.0,91,0.00,,,0.00,meteobridge,2018-05-26 12:30:00,
2018-05-26 05:36:00,51.8,49.3,30.00,SSE,166,0.0,0.0,91,0.00,,,0.00,meteobridge,2018-05-26 12:36:00,
2018-05-26 05:41:00,51.8,49.3,30.00,SSE,165,0.0,0.0,91,0.00,,,0.00,meteobridge,2018-05-26 12:41:00,
2018-05-26 05:46:00,51.8,49.3,30.00,SSE,165,0.0,0.0,91,0.00,,,0.00,meteobridge,2018-05-26 12:46:00,
2018-05-26 05:51:00,51.8,49.6,30.00,SSE,165,0.0,0.0,92,0.00,,,0.00,meteobridge,2018-05-26 12:51:00,
2018-05-26 05:57:00,52.0,49.6,30.00,SSE,165,0.0,0.0,92,0.00,,,0.00,meteobridge,2018-05-26 12:57:00,
2018-05-26 06:02:00,52.0,49.6,30.00,SSE,165,0.0,0.0,92,0.00,,,0.00,meteobridge,2018-05-26 13:02:00,
2018-05-26 06:07:00,52.0,49.6,30.00,SSE,165,0.0,0.0,92,0.00,,,0.00,meteobridge,2018-05-26 13:07:00,
2018-05-26 06:12:00,52.0,49.6,30.00,SSE,165,0.0,0.0,92,0.00,,,0.00,meteobridge,2018-05-26 13:12:00,
2018-05-26 06:17:00,52.0,49.6,30.00,SSE,165,0.0,0.0,92,0.00,,,0.00,meteobridge,2018-05-26 13:17:00,
2018-05-26 06:22:00,52.0,49.6,30.00,SSE,165,0.0,0.0,92,0.00,,,0.00,meteobridge,2018-05-26 13:22:00,
2018-05-26 06:27:00,52.0,49.6,30.00,SSE,165,0.0,0.0,92,0.00,,,0.00,meteobridge,2018-05-26 13:27:00,
2018-05-26 06:32:00,52.0,49.6,29.99,SSE,165,0.0,0.0,92,0.00,,,0.00,meteobridge,2018-05-26 13:32:00,
2018-05-26 06:38:00,52.0,49.5,30.00,SSE,165,0.0,0.0,91,0.00,,,0.00,meteobridge,2018-05-26 13:38:00,
2018-05-26 06:43:00,52.2,49.8,30.00,SSE,165,0.0,0.0,92,0.00,,,0.00,meteobridge,2018-05-26 13:43:00,
2018-05-26 06:48:00,52.2,49.8,30.00,SSE,165,0.0,0.0,92,0.00,,,0.00,meteobridge,2018-05-26 13:48:00,
2018-05-26 06:53:00,52.3,50.0,30.00,SSE,165,0.0,0.0,92,0.00,,,0.00,meteobridge,2018-05-26 13:53:00,
2018-05-26 06:58:00,52.3,49.8,30.01,SSE,165,0.0,0.0,91,0.00,,,0.00,meteobridge,2018-05-26 13:58:00,
2018-05-26 07:03:00,52.3,49.8,30.01,SSE,165,0.0,0.0,91,0.00,,,0.00,meteobridge,2018-05-26 14:03:00,
2018-05-26 07:08:00,52.5,50.0,30.01,SSE,165,0.0,0.0,91,0.00,,,0.00,meteobridge,2018-05-26 14:08:00,
2018-05-26 07:14:00,52.7,50.2,30.01,South,169,0.0,0.0,91,0.00,,,0.00,meteobridge,2018-05-26 14:14:00,
2018-05-26 07:19:00,52.9,50.4,30.01,SSE,154,0.0,0.0,91,0.00,,,0.00,meteobridge,2018-05-26 14:19:00,
2018-05-26 07:24:00,52.9,50.0,30.01,South,173,4.9,5.0,90,0.00,,,0.00,meteobridge,2018-05-26 14:24:00,
2018-05-26 07:29:00,52.9,50.0,30.01,SSE,167,0.0,0.0,90,0.00,,,0.00,meteobridge,2018-05-26 14:29:00,
2018-05-26 07:34:00,53.1,50.2,30.01,SE,141,0.0,8.0,90,0.00,,,0.00,meteobridge,2018-05-26 14:34:00,
2018-05-26 07:39:00,53.1,50.2,30.01,SSE,151,0.0,0.0,90,0.00,,,0.00,meteobridge,2018-05-26 14:39:00,
2018-05-26 07:44:00,53.2,50.4,30.01,South,169,0.0,6.0,90,0.00,,,0.00,meteobridge,2018-05-26 14:44:00,
2018-05-26 07:49:00,53.2,50.4,30.01,South,182,0.0,0.0,90,0.00,,,0.00,meteobridge,2018-05-26 14:49:00,
2018-05-26 07:55:00,53.4,50.5,30.01,South,179,0.0,0.0,90,0.00,,,0.00,meteobridge,2018-05-26 14:55:00,
2018-05-26 07:59:00,53.8,50.5,30.01,South,171,0.0,0.0,89,0.00,,,0.00,meteobridge,2018-05-26 14:59:00,
2018-05-26 08:05:00,54.0,50.7,30.01,SSE,163,0.0,2.0,89,0.00,,,0.00,meteobridge,2018-05-26 15:05:00,
2018-05-26 08:10:00,54.1,50.9,30.01,South,171,0.0,0.0,89,0.00,,,0.00,meteobridge,2018-05-26 15:10:00,
2018-05-26 08:15:00,54.3,50.9,30.02,South,186,2.9,7.0,88,0.00,,,0.00,meteobridge,2018-05-26 15:15:00,
2018-05-26 08:20:00,54.5,51.1,30.01,South,184,0.0,0.0,88,0.00,,,0.00,meteobridge,2018-05-26 15:20:00,
2018-05-26 08:25:00,54.7,50.9,30.01,South,182,4.9,7.0,87,0.00,,,0.00,meteobridge,2018-05-26 15:25:00,
2018-05-26 08:30:00,55.0,51.3,30.01,SSW,201,4.9,6.0,87,0.00,,,0.00,meteobridge,2018-05-26 15:30:00,
2018-05-26 08:35:00,55.2,51.1,30.01,SSW,192,0.0,0.0,86,0.00,,,0.00,meteobridge,2018-05-26 15:35:00,
2018-05-26 08:41:00,55.6,51.4,30.02,South,169,0.0,0.0,86,0.00,,,0.00,meteobridge,2018-05-26 15:41:00,
2018-05-26 08:46:00,55.6,51.1,30.02,South,179,0.0,0.0,85,0.00,,,0.00,meteobridge,2018-05-26 15:46:00,
2018-05-26 08:51:00,55.8,51.3,30.01,South,176,0.0,0.0,85,0.00,,,0.00,meteobridge,2018-05-26 15:51:00,
2018-05-26 08:56:00,56.1,51.6,30.01,SSE,162,4.0,7.0,85,0.00,,,0.00,meteobridge,2018-05-26 15:56:00,
2018-05-26 09:01:00,56.3,51.8,30.01,South,180,2.9,7.0,85,0.00,,,0.00,meteobridge,2018-05-26 16:01:00,
2018-05-26 09:06:00,56.5,51.4,30.01,South,188,4.9,5.0,83,0.00,,,0.00,meteobridge,2018-05-26 16:06:00,
2018-05-26 09:11:00,56.7,51.8,30.01,South,184,4.0,7.0,84,0.00,,,0.00,meteobridge,2018-05-26 16:11:00,
2018-05-26 09:16:00,56.8,52.0,30.01,South,176,0.9,10.0,84,0.00,,,0.00,meteobridge,2018-05-26 16:16:00,
2018-05-26 09:21:00,57.2,52.2,30.01,SW,214,2.0,6.0,83,0.00,,,0.00,meteobridge,2018-05-26 16:21:00,
2018-05-26 09:26:00,57.6,51.8,30.01,SSW,194,2.9,7.0,81,0.00,,,0.00,meteobridge,2018-05-26 16:26:00,
2018-05-26 09:31:00,57.7,52.3,30.02,South,187,0.0,0.0,82,0.00,,,0.00,meteobridge,2018-05-26 16:31:00,
2018-05-26 09:37:00,57.9,51.8,30.02,SSW,207,0.0,0.0,80,0.00,,,0.00,meteobridge,2018-05-26 16:37:00,
2018-05-26 09:42:00,58.3,51.8,30.02,SSW,200,4.9,6.0,79,0.00,,,0.00,meteobridge,2018-05-26 16:42:00,
2018-05-26 09:47:00,58.1,52.0,30.02,SSW,204,4.0,6.0,80,0.00,,,0.00,meteobridge,2018-05-26 16:47:00,
2018-05-26 09:52:00,58.5,52.3,30.01,SSW,206,0.0,5.0,80,0.00,,,0.00,meteobridge,2018-05-26 16:52:00,
2018-05-26 09:57:00,58.8,52.3,30.01,SSW,206,0.0,0.0,79,0.00,,,0.00,meteobridge,2018-05-26 16:57:00,
2018-05-26 10:02:00,59.2,52.3,30.01,SSW,206,0.0,0.0,78,0.00,,,0.00,meteobridge,2018-05-26 17:02:00,